Weather Roundup
Issued by NWS

Home | Current Version | Previous Version | Text Only | Print | Product List | Glossary On
Versions: 1 2 3 4 5 6 7 8 9 10 11 12 13 14 15 16 17 18 19 20 21 22 23 24 25 26 27 28 29 30 31 32 33 34 35 36 37 38 39 40 41 42 43 44 45 46 47 48 49 50
000
NZUS93 KARX 031459
HRRWXR

CURRENT HOURLY OBSERVATIONS ACROSS
MUCH OF THE UPPER MISSISSIPPI VALLEY
NATIONAL WEATHER SERVICE LA CROSSE WI
900 AM CST TUE MAR 03 2015


...SOUTHEAST MINNESOTA...


CITY           SKY/WX    TMP DP  RH WIND       PRES   REMARKS
ROCHESTER      LGT SNOW  24  22  91 S10       29.68S VSB 1   WCI  14
ROCHESTER/MAYO CLOUDY    24  22  94 S6        29.68F WCI  17
WINONA         MIX PCPN  25  23  93 SE3       29.72F VSB 1
AUSTIN         MIX PCPN  25  23  93 S6        29.67S WCI  18
ALBERT LEA     MIX PCPN  25  25 100 SW3       29.67F
DODGE CENTER   LGT SNOW  25  25 100 S8        29.67R WCI  16
PRESTON        CLOUDY    23  22  96 S7        29.68S FOG     WCI  15
OWATONNA       CLOUDY    25  21  86 S6        29.68S VSB 3/4 WCI  18
FARIBAULT      LGT SNOW  25  21  86 CALM      29.69S VSB 1
$$

...ELSEWHERE IN MINNESOTA...


CITY           SKY/WX    TMP DP  RH WIND       PRES   REMARKS
MINNEAPOLIS    LGT SNOW  21  18  88 SE5       29.70F VSB 3/4 WCI  15
INTNL FALLS    LGT SNOW  22  18  85 W13       29.56S FOG     WCI  10
DULUTH         SNOW      19  15  84 SW12      29.61F VSB 1/4 WCI   7
RED WING       HVY SNOW  25  21  86 CALM      29.71S VSB 1/4
REDWOOD FALLS  SNOW      24  22  91 SW5       29.69R VSB 1/2 WCI  18
MANKATO        CLOUDY    25  21  86 SW5       29.69S VSB 1   WCI  19
FAIRMONT       CLOUDY    25  21  86 W3        29.67S
$$

...SOUTHWEST WISCONSIN...


CITY           SKY/WX    TMP DP  RH WIND       PRES   REMARKS
LA CROSSE      FRZ RAIN  25  22  88 S5        29.71F FOG     WCI  19
PRAIRIE DU CHI MIX PCPN  25  23  91 CALM      29.72F
BOSCOBEL       CLOUDY    26  23  88 CALM      29.72F FOG
LONE ROCK      SNOW      24  22  91 E5        29.72F VSB 1/2 WCI  18
PLATTEVILLE    CLOUDY    27  26  95 SE9       29.69F WCI  18
FORT MC COY    CLOUDY    24  19  83 S5        29.73S WCI  18
CAMP DOUGLAS   FRZ DRZL  23  23 100 SE7       29.70F FOG     WCI  15
VIROQUA        CLOUDY    23  22  99 SE9       29.68F WCI  13
WIS DELLS      NOT AVBL
$$

...ELSEWHERE IN WISCONSIN...


CITY           SKY/WX    TMP DP  RH WIND       PRES   REMARKS
MILWAUKEE      LGT SNOW  27  23  85 SE20      29.76F VSB 3/4 WCI  13
MADISON        LGT SNOW  25  22  88 S13       29.71F VSB 1   WCI  14
GREEN BAY      SNOW      26  24  92 S9        29.76F VSB 1/4 WCI  17
EAU CLAIRE     LGT SNOW  22  18  85 S3        29.70S VSB 3/4
BLACK RVR FLS  CLOUDY    23  19  85 CALM      29.71F FOG
MEDFORD        LGT SNOW  19  16  86 SE7       29.67F WCI  10
WAUSAU         LGT SNOW  20  17  88 SE7       29.67F VSB 3/4 WCI  11
WIS RAPIDS     CLOUDY    22  17  81 SE7       29.70F HAZE    WCI  13
MARSHFIELD     CLOUDY    21  17  84 S12       29.69F FOG     WCI   9
RICE LAKE      SNOW      20  18  89 S3        29.72R VSB 1/4
$$

...NORTHEAST IOWA...


CITY           SKY/WX    TMP DP  RH WIND       PRES   REMARKS
DECORAH        NOT AVBL
MASON CITY     CLOUDY    26  24  92 SW7       29.69S FOG     WCI  18
CHARLES CITY   FOG       25  25 100 S6        29.69S VSB 1/2 WCI  18
OELWEIN        FOG       28  28 100 S10       29.68F VSB 1/2 WCI  19
$$

...ELSEWHERE IN IOWA...


CITY           SKY/WX    TMP DP  RH WIND       PRES   REMARKS
DES MOINES     FRZ DRZL  33  31  92 SW7       29.69R VSB 1   WCI  27
IOWA CITY      CLOUDY    30  29  96 S14       29.73F FOG     WCI  19
FORT DODGE     CLOUDY    28  27  93 W3        29.69S
$$

...NORTHERN ILLINOIS...


CITY           SKY/WX    TMP DP  RH WIND       PRES   REMARKS
CHICAGO-OHARE  FRZ RAIN  29  26  89 S20       29.75F FOG     WCI  16
CHICAGO-MIDWAY FRZ RAIN  30  27  88 S15       29.78F FOG     WCI  19
MOLINE         CLOUDY    30  27  88 S8        29.72F FOG     WCI  22
ROCKFORD       FRZ DRZL  29  26  89 S23G35    29.75F WCI  15
PEORIA         FRZ RAIN  32  29  88 S20G25    29.76S VSB 1   WCI  20
$$

NOTE: "FAIR" INDICATES FEW OR NO CLOUDS BELOW 12,000 FEET WITH NO
SIGNIFICANT WEATHER AND/OR OBSTRUCTIONS TO VISIBILITY. WIND
SPEEDS ARE IN MILES-PER-HOUR.



USA.gov is the U.S. government's official web portal to all federal, state and local government web resources and services.